When you browse on this site, cookies collect data to enhance your experience and personalize the content and advertising you see.
Visit our Privacy Policy to learn more. By continuing to use the site, you agree to this use of cookies and data.
  • în România
  • Lista ţărilor
  • Pe 7 zile
  • Temperatura apei
  • Hartă satelitară
  • Meteo pe hartă
  • Widget-uri
  • user-avatar
    Intrare

    Meteo pe oră la Novolipovka

    Astăzi, 21 Mai, Marţi

    Timp Temperatura Precipitaţii Vânt Presiune Umiditate
    00:00 +9°C° 0 mm 2 m/s 759 mmHg 64%
    01:00 +8°C° 0 mm 2 m/s 759 mmHg 67%
    02:00 +8°C° 0 mm 2 m/s 759 mmHg 69%
    03:00 +7°C° 0 mm 2 m/s 759 mmHg 72%
    04:00 +8°C° 0 mm 2 m/s 760 mmHg 71%
    05:00 +9°C° 0 mm 2 m/s 760 mmHg 70%
    06:00 +10°C° 0 mm 2 m/s 760 mmHg 69%
    07:00 +12°C° 0 mm 2 m/s 760 mmHg 61%
    08:00 +14°C° 0 mm 2 m/s 760 mmHg 54%
    09:00 +16°C° 0 mm 3 m/s 760 mmHg 45%
    10:00 +16°C° 0 mm 3 m/s 761 mmHg 44%
    11:00 +17°C° 0 mm 3 m/s 761 mmHg 43%
    12:00 +17°C° 0 mm 3 m/s 761 mmHg 42%
    13:00 +18°C° 0 mm 3 m/s 761 mmHg 42%
    14:00 +18°C° 0 mm 2 m/s 760 mmHg 42%
    15:00 +18°C° 0 mm 2 m/s 760 mmHg 42%
    16:00 +19°C° 0 mm 1 m/s 760 mmHg 44%
    17:00 +19°C° 0 mm 1 m/s 760 mmHg 46%
    18:00 +17°C° 0 mm 0 m/s 760 mmHg 49%
    19:00 +18°C° 0 mm 1 m/s 760 mmHg 52%
    20:00 +15°C° 0 mm 2 m/s 760 mmHg 55%
    21:00 +13°C° 0 mm 3 m/s 760 mmHg 58%
    22:00 +13°C° 0 mm 3 m/s 760 mmHg 59%
    23:00 +12°C° 0 mm 3 m/s 760 mmHg 61%

    Mâine, 22 Mai, Miercuri

    Timp Temperatura Precipitaţii Vânt Presiune Umiditate
    00:00 +12°C° 0 mm 3 m/s 760 mmHg 62%
    01:00 +12°C° 0 mm 3 m/s 760 mmHg 62%
    02:00 +11°C° 0 mm 3 m/s 759 mmHg 63%
    03:00 +11°C° 0 mm 3 m/s 759 mmHg 63%
    04:00 +12°C° 0 mm 4 m/s 759 mmHg 63%
    05:00 +13°C° 0 mm 4 m/s 759 mmHg 62%
    06:00 +14°C° 0 mm 4 m/s 759 mmHg 62%
    07:00 +15°C° 0 mm 5 m/s 758 mmHg 56%
    08:00 +17°C° 0 mm 5 m/s 758 mmHg 50%
    09:00 +20°C° 0 mm 5 m/s 758 mmHg 44%
    10:00 +21°C° 0 mm 5 m/s 758 mmHg 42%
    11:00 +22°C° 0 mm 6 m/s 757 mmHg 40%
    12:00 +23°C° 0 mm 6 m/s 757 mmHg 38%
    13:00 +23°C° 0 mm 6 m/s 757 mmHg 38%
    14:00 +23°C° 0 mm 6 m/s 756 mmHg 38%
    15:00 +23°C° 0 mm 6 m/s 756 mmHg 39%
    16:00 +23°C° 0 mm 5 m/s 756 mmHg 42%
    17:00 +22°C° 0 mm 5 m/s 755 mmHg 45%
    18:00 +22°C° 0 mm 4 m/s 755 mmHg 48%
    19:00 +20°C° 0 mm 4 m/s 755 mmHg 51%
    20:00 +18°C° 0 mm 4 m/s 755 mmHg 54%
    21:00 +17°C° 0 mm 3 m/s 755 mmHg 56%
    22:00 +16°C° 0 mm 3 m/s 755 mmHg 56%
    23:00 +16°C° 0 mm 3 m/s 755 mmHg 57%

    Poimâine, 23 Mai, Joi

    Timp Temperatura Precipitaţii Vânt Presiune Umiditate
    00:00 +16°C° 0 mm 3 m/s 755 mmHg 57%
    01:00 +14°C° 0 mm 3 m/s 754 mmHg 57%
    02:00 +14°C° 0 mm 3 m/s 754 mmHg 58%
    03:00 +13°C° 0 mm 3 m/s 754 mmHg 59%
    04:00 +14°C° 0 mm 3 m/s 754 mmHg 58%
    05:00 +14°C° 0 mm 4 m/s 753 mmHg 58%
    06:00 +14°C° 0 mm 4 m/s 753 mmHg 57%
    07:00 +17°C° 0 mm 4 m/s 753 mmHg 51%
    08:00 +17°C° 0 mm 5 m/s 752 mmHg 46%
    09:00 +20°C° 0 mm 5 m/s 752 mmHg 40%
    10:00 +21°C° 0 mm 6 m/s 752 mmHg 40%
    11:00 +21°C° 0 mm 6 m/s 751 mmHg 40%
    12:00 +22°C° 0 mm 7 m/s 751 mmHg 40%
    13:00 +21°C° 0 mm 7 m/s 751 mmHg 47%
    14:00 +21°C° 0 mm 7 m/s 750 mmHg 55%
    15:00 +20°C° 0 mm 7 m/s 750 mmHg 62%
    16:00 +20°C° 0 mm 6 m/s 749 mmHg 63%
    17:00 +20°C° 0 mm 6 m/s 749 mmHg 65%
    18:00 +20°C° 0 mm 5 m/s 749 mmHg 66%
    19:00 +19°C° 0.5 mm 4 m/s 748 mmHg 73%
    20:00 +18°C° 0.5 mm 4 m/s 748 mmHg 79%
    21:00 +17°C° 0.5 mm 3 m/s 748 mmHg 86%
    22:00 +16°C° 0.1 mm 3 m/s 748 mmHg 88%
    23:00 +16°C° 0.1 mm 3 m/s 748 mmHg 90%

    24 Mai, Vineri

    Timp Temperatura Precipitaţii Vânt Presiune Umiditate
    00:00 +16°C° 0.1 mm 3 m/s 747 mmHg 92%
    01:00 +14°C° 0 mm 3 m/s 747 mmHg 93%
    02:00 +14°C° 0 mm 3 m/s 747 mmHg 93%
    03:00 +14°C° 0 mm 2 m/s 747 mmHg 94%
    04:00 +15°C° 0 mm 2 m/s 747 mmHg 90%
    05:00 +16°C° 0 mm 2 m/s 748 mmHg 87%
    06:00 +17°C° 0 mm 2 m/s 748 mmHg 84%
    07:00 +18°C° 0 mm 3 m/s 748 mmHg 80%
    08:00 +19°C° 0 mm 4 m/s 749 mmHg 75%
    09:00 +20°C° 0 mm 5 m/s 750 mmHg 71%
    10:00 +19°C° 0 mm 6 m/s 750 mmHg 68%
    11:00 +17°C° 0 mm 6 m/s 750 mmHg 65%
    12:00 +17°C° 0 mm 6 m/s 751 mmHg 63%
    13:00 +17°C° 0 mm 6 m/s 751 mmHg 57%
    14:00 +19°C° 0 mm 6 m/s 751 mmHg 52%
    15:00 +19°C° 0 mm 6 m/s 752 mmHg 47%
    16:00 +19°C° 0 mm 6 m/s 752 mmHg 47%
    17:00 +17°C° 0 mm 5 m/s 753 mmHg 46%
    18:00 +16°C° 0 mm 5 m/s 753 mmHg 46%
    19:00 +14°C° 0 mm 4 m/s 754 mmHg 50%
    20:00 +12°C° 0 mm 4 m/s 754 mmHg 53%
    21:00 +11°C° 0 mm 3 m/s 755 mmHg 57%
    22:00 +10°C° 0 mm 3 m/s 755 mmHg 59%
    23:00 +9°C° 0 mm 3 m/s 756 mmHg 61%

    25 Mai, Sâmbătă

    Timp Temperatura Precipitaţii Vânt Presiune Umiditate
    00:00 +9°C° 0 mm 3 m/s 756 mmHg 63%
    01:00 +8°C° 0 mm 3 m/s 756 mmHg 66%
    02:00 +8°C° 0 mm 3 m/s 756 mmHg 69%
    03:00 +7°C° 0 mm 3 m/s 756 mmHg 71%
    04:00 +7°C° 0 mm 4 m/s 757 mmHg 70%
    05:00 +8°C° 0 mm 4 m/s 757 mmHg 69%
    06:00 +9°C° 0 mm 5 m/s 757 mmHg 68%
    07:00 +12°C° 0 mm 5 m/s 757 mmHg 63%
    08:00 +13°C° 0 mm 5 m/s 757 mmHg 57%
    09:00 +15°C° 0 mm 5 m/s 757 mmHg 51%
    10:00 +16°C° 0 mm 5 m/s 757 mmHg 48%
    11:00 +17°C° 0 mm 5 m/s 757 mmHg 44%
    12:00 +20°C° 0 mm 5 m/s 757 mmHg 41%
    13:00 +20°C° 0 mm 5 m/s 756 mmHg 40%
    14:00 +21°C° 0 mm 5 m/s 756 mmHg 39%
    15:00 +21°C° 0 mm 5 m/s 755 mmHg 38%
    16:00 +21°C° 0 mm 5 m/s 755 mmHg 41%
    17:00 +20°C° 0 mm 4 m/s 755 mmHg 45%
    18:00 +20°C° 0 mm 4 m/s 755 mmHg 49%
    19:00 +19°C° 0 mm 4 m/s 754 mmHg 50%
    20:00 +17°C° 0 mm 5 m/s 754 mmHg 52%
    21:00 +15°C° 0 mm 5 m/s 754 mmHg 53%
    22:00 +15°C° 0 mm 6 m/s 754 mmHg 51%
    23:00 +15°C° 0 mm 6 m/s 754 mmHg 49%

    26 Mai, Duminică

    Timp Temperatura Precipitaţii Vânt Presiune Umiditate
    00:00 +15°C° 0 mm 7 m/s 754 mmHg 47%
    01:00 +15°C° 0 mm 7 m/s 753 mmHg 44%
    02:00 +15°C° 0 mm 7 m/s 753 mmHg 42%
    03:00 +15°C° 0 mm 7 m/s 752 mmHg 40%
    04:00 +15°C° 0.2 mm 7 m/s 752 mmHg 42%
    05:00 +14°C° 0.2 mm 7 m/s 752 mmHg 44%
    06:00 +14°C° 0.2 mm 7 m/s 751 mmHg 46%
    07:00 +15°C° 0.1 mm 8 m/s 751 mmHg 47%
    08:00 +16°C° 0.1 mm 8 m/s 751 mmHg 48%
    09:00 +17°C° 0.1 mm 8 m/s 750 mmHg 49%
    10:00 +18°C° 0.2 mm 9 m/s 750 mmHg 49%
    11:00 +21°C° 0.2 mm 9 m/s 750 mmHg 50%
    12:00 +22°C° 0.2 mm 10 m/s 749 mmHg 51%
    13:00 +23°C° 0.3 mm 9 m/s 749 mmHg 52%
    14:00 +24°C° 0.3 mm 9 m/s 748 mmHg 54%
    15:00 +26°C° 0.3 mm 9 m/s 747 mmHg 56%
    16:00 +24°C° 0.6 mm 8 m/s 747 mmHg 59%
    17:00 +24°C° 0.6 mm 6 m/s 747 mmHg 61%
    18:00 +25°C° 0.6 mm 5 m/s 746 mmHg 64%
    19:00 +22°C° 0.2 mm 5 m/s 746 mmHg 69%
    20:00 +21°C° 0.2 mm 5 m/s 746 mmHg 74%
    21:00 +19°C° 0.2 mm 4 m/s 746 mmHg 79%
    22:00 +18°C° 0 mm 4 m/s 746 mmHg 81%
    23:00 +18°C° 0 mm 4 m/s 746 mmHg 82%
    Arată mai mult